Theta_e
286 281 280 280 282 283 283 284 285 282 282 280 280 280 279 279 281 283 284 286 284 283 283 285 285 285 285 287 289 291 291 288 288 289 290 291 291 292 292 292 292 292 293 296 294 293 293 294 293 292 291 291 290 289 289 291 292 294 296 297 298 299 299 300 299 300 300 299 298 297 301 302 302 302 302 302 303 305 306 305 305 304 305 305 304 303
287 281 281 283 284 283 283 284 283 283 283 281 280 279 280 279 280 284 284 287 282 283 281 282 282 284 286 289 290 291 290 289 290 289 290 291 291 292 292 292 293 294 294 293 293 292 291 291 292 293 294 295 295 294 289 291 292 293 294 297 298 298 299 300 300 301 301 301 302 301 301 302 302 301 301 301 302 304 305 304 304 304 304 304 304 303
282 280 284 285 285 282 282 282 282 283 282 281 281 280 280 282 283 285 284 282 284 281 282 283 282 285 287 289 290 290 290 291 291 291 291 291 291 292 293 292 292 292 292 292 291 291 291 291 293 294 293 292 292 291 291 290 291 292 294 296 297 299 299 299 300 300 300 300 300 301 298 302 299 299 302 302 302 303 303 304 304 304 304 303 303 302
281 281 285 287 283 283 283 282 282 281 281 280 279 278 279 282 279 279 281 281 282 282 283 285 282 284 288 289 288 289 289 289 290 290 291 291 291 292 293 293 292 291 291 292 292 292 291 291 293 293 295 294 292 293 293 292 292 293 295 295 297 299 299 299 300 301 299 299 297 296 298 299 298 298 298 298 298 299 300 301 302 302 302 303 303 302
284 284 286 283 283 284 283 282 282 281 280 281 281 280 280 281 281 281 282 282 285 282 282 282 283 284 283 283 286 290 287 287 289 288 288 289 290 292 292 291 290 291 291 291 291 292 290 291 294 296 294 293 295 292 292 293 294 296 295 296 298 299 299 299 300 300 299 299 297 297 297 297 296 297 297 296 295 299 300 301 299 301 301 301 302 301
284 287 285 284 283 283 283 281 281 282 278 278 280 283 283 283 281 281 281 281 281 278 283 283 278 277 280 284 287 288 287 288 288 287 288 288 289 288 289 290 291 292 292 292 292 292 290 292 293 294 294 295 293 294 293 291 293 294 295 296 297 298 298 299 299 299 299 299 299 298 298 296 297 295 296 298 299 297 298 299 298 298 300 301 302 301
285 285 285 285 284 282 281 282 282 283 280 280 283 283 285 284 282 281 280 280 277 277 281 283 276 276 284 286 288 286 284 287 290 287 289 289 289 288 290 291 290 290 289 289 290 290 290 292 292 294 294 294 295 295 293 291 291 293 294 295 297 298 298 298 299 299 300 298 298 299 299 299 299 298 297 296 297 298 298 299 299 300 300 301 302 301
285 284 284 284 283 283 282 281 282 284 281 280 284 283 283 283 282 281 281 281 280 279 282 280 279 275 278 286 286 284 285 289 290 289 289 288 287 287 289 289 288 288 288 290 291 291 290 291 292 295 295 294 295 294 291 291 291 292 294 294 296 297 299 298 299 298 300 299 298 298 298 299 298 298 298 297 297 298 298 298 298 299 299 300 301 300
285 284 283 283 283 281 283 285 283 285 284 282 286 285 284 284 283 283 283 282 281 278 280 280 279 276 275 282 286 285 287 287 287 287 288 289 289 289 289 290 290 289 290 290 290 290 291 292 292 292 293 294 292 292 293 292 292 291 292 294 294 295 296 297 298 299 299 299 298 298 298 297 297 296 295 296 296 297 297 297 295 297 298 298 298 299
284 286 284 284 283 282 285 285 283 286 284 285 285 285 284 284 283 283 282 283 280 277 278 280 279 275 278 284 285 282 282 284 285 286 287 287 287 287 289 290 290 289 289 288 290 290 291 291 290 290 291 292 292 290 291 290 289 289 290 293 293 294 294 296 296 298 298 297 298 297 297 297 296 295 292 295 296 296 296 297 296 296 297 297 297 298
285 287 287 285 284 284 284 285 284 285 284 284 284 284 282 281 280 280 280 280 278 273 280 280 277 278 275 282 283 282 285 286 284 284 285 286 286 287 288 287 288 288 288 288 289 289 290 290 290 290 292 291 290 289 289 290 289 289 291 292 293 293 293 294 296 297 297 297 297 297 297 297 296 295 295 294 294 294 294 296 295 296 296 297 298 297
286 285 285 285 285 283 283 283 283 284 283 284 282 281 280 281 278 280 274 275 275 274 280 279 277 278 273 280 283 285 285 284 285 286 287 288 288 288 289 288 286 287 288 289 289 291 290 291 292 291 293 291 290 291 290 289 289 290 290 291 293 291 293 293 295 296 297 297 297 296 297 297 297 296 296 296 295 295 296 296 296 295 295 295 296 297
282 285 284 285 287 286 284 284 282 282 283 282 280 278 275 271 273 270 272 272 271 274 278 277 278 278 278 285 287 288 290 290 288 288 289 289 289 289 290 289 288 287 288 290 291 290 290 291 291 291 291 291 293 294 291 290 290 289 289 291 293 293 291 293 294 296 296 296 297 297 297 296 297 296 297 297 296 296 296 296 296 295 295 295 295 295
281 280 283 285 285 286 285 283 279 281 279 281 281 276 273 269 267 266 266 264 267 273 278 278 280 278 281 285 289 289 291 292 291 290 289 289 290 291 291 289 288 288 288 289 290 289 290 290 291 290 290 289 289 289 290 289 290 289 290 289 292 293 291 291 293 295 295 296 297 296 297 297 297 296 296 296 297 296 297 297 297 296 297 296 297 297
272 275 279 283 282 284 285 287 283 278 280 281 280 281 278 270 266 266 261 269 270 271 275 277 275 274 277 283 284 287 289 289 288 288 288 288 289 288 287 287 287 287 289 289 289 290 290 291 290 291 290 289 289 289 288 288 289 288 290 291 291 291 290 291 293 293 294 295 295 295 296 296 296 297 296 296 297 296 296 296 297 297 297 297 297 298
279 278 280 282 282 282 283 282 281 281 281 280 279 280 276 277 274 274 266 266 266 267 269 272 276 278 282 285 288 291 290 289 289 288 287 288 289 286 287 287 288 289 290 289 289 290 290 289 289 289 289 289 288 288 287 288 289 289 291 291 292 293 292 291 293 293 294 295 295 295 295 296 296 297 296 296 295 296 297 297 297 297 297 298 298 298
276 276 280 281 282 282 282 282 283 283 279 279 280 276 278 278 278 271 269 267 269 267 271 270 276 279 281 286 289 283 281 286 281 281 282 285 285 283 286 287 287 288 289 289 290 290 290 288 288 289 289 288 287 287 288 290 289 290 291 291 292 291 289 291 292 293 293 294 293 294 294 294 294 295 295 296 295 296 296 297 297 297 297 297 297 297
277 276 281 281 283 283 281 281 281 280 281 280 275 278 280 281 279 274 270 264 261 265 270 271 273 276 275 279 283 284 283 284 283 281 281 282 282 282 286 287 287 288 288 288 287 287 288 287 288 288 287 288 289 289 288 290 289 290 290 291 292 291 292 291 291 292 292 293 293 293 293 294 295 296 296 296 296 295 295 295 296 295 295 296 297 298
283 277 278 280 280 282 281 283 283 283 282 280 279 278 282 272 273 270 268 266 264 264 266 270 272 274 277 280 281 287 287 288 287 285 282 285 285 285 285 286 286 286 286 288 288 288 288 288 289 289 289 288 288 289 289 289 289 289 288 289 290 291 291 292 292 290 291 292 294 295 295 295 295 295 295 295 295 295 295 295 295 295 297 296 296 296
283 275 276 280 280 281 281 282 278 280 283 279 282 280 276 276 268 269 274 266 267 264 265 270 268 278 278 279 279 284 286 286 284 284 284 285 285 285 285 285 287 287 286 288 288 288 288 288 288 289 289 289 289 288 287 288 287 288 288 289 289 289 288 289 290 290 291 292 293 294 292 293 294 294 295 295 295 294 295 295 295 295 294 296 296 296
281 279 270 275 279 280 279 280 280 281 279 279 280 275 277 274 276 276 272 272 270 260 261 262 270 277 279 280 281 284 284 284 283 285 286 286 286 286 284 284 286 286 286 287 287 287 288 288 288 288 287 288 287 285 286 286 288 288 289 289 289 290 290 290 290 290 292 291 292 292 293 293 293 293 294 294 294 295 294 294 295 295 296 294 295 296
278 277 276 274 277 275 279 279 281 282 283 282 282 280 281 277 273 270 273 269 262 269 268 261 274 279 285 282 284 285 285 283 282 282 284 285 285 285 284 284 284 286 287 286 287 286 287 287 287 287 287 286 285 288 287 288 287 287 288 290 289 289 291 291 290 291 292 291 292 292 293 293 292 293 293 293 293 294 294 294 294 295 294 295 295 295
283 276 274 272 276 280 280 280 278 278 279 277 282 281 282 281 277 269 266 269 266 267 265 264 265 279 283 282 282 283 281 280 280 280 283 283 283 282 283 283 283 283 285 286 286 287 287 287 287 287 288 288 288 288 287 286 287 289 289 289 289 290 292 292 292 291 290 291 291 292 292 292 292 292 292 292 293 293 293 294 293 293 294 295 294 294
289 277 273 278 275 274 278 277 278 277 281 281 280 278 280 281 281 279 274 271 271 267 269 267 267 279 284 281 280 280 279 278 279 279 281 283 283 283 283 284 284 284 284 284 285 286 286 286 286 287 289 290 290 288 289 288 287 288 289 290 289 290 292 291 291 290 290 290 291 290 289 291 291 291 291 292 293 293 293 293 293 293 294 294 294 294
279 277 279 267 267 267 268 275 277 273 275 276 277 279 282 282 282 276 274 270 271 271 272 272 272 277 284 279 282 281 281 281 282 280 279 281 285 285 285 285 285 284 284 284 284 286 286 286 287 289 290 290 291 290 289 290 289 288 289 289 290 291 292 291 289 289 290 290 290 289 290 290 290 291 291 292 292 292 292 292 292 292 293 293 293 293
282 278 279 270 272 269 266 266 268 272 278 277 276 276 280 282 280 277 276 271 271 269 273 267 275 284 286 284 286 285 284 286 286 283 280 280 282 286 288 288 287 285 286 286 286 286 286 287 287 287 288 289 290 291 292 291 291 290 289 289 290 291 290 290 288 290 290 289 289 289 289 290 289 291 291 292 292 292 292 292 291 292 292 293 293 292
276 275 281 280 278 277 279 279 276 279 277 276 278 279 280 281 282 282 273 271 274 269 271 277 281 283 284 287 287 288 288 287 288 288 287 289 288 287 285 286 288 288 288 288 288 289 287 288 290 289 288 289 290 291 292 291 291 290 289 288 288 289 289 289 288 289 290 289 289 290 289 290 290 291 292 292 292 291 290 291 291 291 291 291 293 292
271 276 280 281 282 283 282 283 278 281 278 278 279 278 280 280 280 280 278 277 279 274 274 280 281 280 282 286 287 288 289 287 287 288 289 286 287 289 291 291 290 288 288 288 288 290 291 291 290 290 290 288 289 290 290 290 290 290 289 289 289 287 287 288 287 288 289 289 288 289 290 290 290 290 290 290 288 289 289 290 289 291 290 289 291 291
278 277 280 280 281 282 282 282 280 278 279 279 279 280 279 279 279 278 279 282 280 278 278 282 281 280 283 286 288 289 289 288 288 289 290 289 290 290 287 286 287 289 290 290 290 291 291 291 291 291 290 290 288 288 289 289 288 287 287 287 288 286 287 286 287 287 288 288 288 290 290 288 286 286 287 287 287 287 288 288 289 288 288 288 289 290
278 279 274 279 280 281 281 281 281 281 279 279 279 279 280 279 279 280 281 282 282 281 283 284 283 282 285 287 289 290 288 287 288 286 285 285 287 286 284 285 287 288 289 290 291 291 291 291 292 292 293 293 292 289 287 287 287 287 288 289 288 286 286 285 287 288 287 288 289 288 287 286 285 286 286 286 287 287 287 287 286 286 286 287 287 287
283 276 281 274 275 279 280 280 279 280 280 280 282 281 280 279 279 280 281 282 282 282 283 283 282 283 288 290 290 291 291 290 290 290 291 291 291 286 286 287 288 289 289 290 291 291 291 290 290 291 291 291 291 290 289 288 288 287 286 287 287 287 286 286 287 287 287 289 288 286 285 285 285 285 286 286 285 285 286 286 285 285 286 285 285 286
280 275 270 269 272 275 275 279 280 280 280 279 280 281 280 278 277 279 278 282 281 281 282 281 280 281 287 290 291 290 290 289 289 290 291 291 290 286 287 288 289 290 290 291 291 290 290 290 290 290 291 291 292 291 288 288 288 286 287 287 286 287 284 285 286 287 287 287 286 285 285 285 285 285 285 285 286 286 285 284 285 285 286 285 284 284
279 273 273 270 272 276 273 275 277 275 276 277 279 281 282 281 282 282 283 283 284 284 281 279 281 286 288 290 288 289 289 289 289 290 290 290 288 288 289 289 290 290 291 291 290 290 290 291 291 291 291 291 291 291 290 288 286 286 287 286 287 284 284 285 286 287 286 284 285 285 284 284 285 285 284 285 285 284 284 285 285 284 285 286 284 284
277 277 273 273 272 264 267 269 270 272 270 274 279 284 284 282 282 280 281 282 284 285 284 287 287 289 287 287 287 288 289 290 291 292 291 290 290 288 287 288 290 291 290 289 289 290 291 291 291 291 290 291 290 289 288 285 287 287 286 285 283 284 285 286 285 286 285 284 284 284 284 285 284 283 285 285 285 285 285 285 286 284 285 285 286 286
279 278 275 271 272 269 266 269 270 268 273 277 276 279 283 285 284 283 283 285 285 285 286 286 287 287 288 289 289 290 291 292 293 292 288 286 287 287 288 288 287 287 289 289 289 290 290 290 290 289 288 288 287 285 284 283 282 283 283 283 284 284 285 285 285 284 284 284 283 283 284 285 285 285 284 285 285 286 286 285 284 284 284 286 286 284
277 279 272 272 269 267 265 269 262 272 276 281 281 279 279 278 280 280 281 283 284 285 285 285 286 288 289 289 290 291 291 292 293 292 290 288 288 290 289 288 288 289 289 291 291 291 291 290 289 288 289 287 285 284 283 284 281 282 283 282 284 283 284 284 284 283 283 283 282 284 285 285 284 284 284 284 284 284 284 284 284 284 284 283 283 284
283 281 278 278 275 276 273 270 275 280 279 282 282 279 280 279 278 279 278 282 285 286 286 285 286 287 288 289 290 291 291 290 288 290 293 290 292 291 290 290 291 291 291 291 290 289 287 284 283 282 282 283 283 282 282 281 282 283 282 283 282 283 283 284 283 283 282 282 282 283 284 284 284 284 284 283 283 283 283 283 283 283 283 283 284 284
285 282 281 279 276 279 275 272 270 273 271 277 280 284 286 287 285 283 280 281 284 286 287 286 286 287 288 289 289 290 286 284 286 287 292 293 289 290 288 289 287 283 280 280 279 280 280 279 279 280 279 279 279 280 280 281 282 283 283 282 282 283 283 283 282 281 282 281 281 282 284 285 285 284 284 284 282 282 283 283 284 284 285 284 283 283
284 285 284 281 278 275 275 273 273 271 275 278 279 282 281 284 284 280 277 278 281 285 287 287 287 288 288 288 288 287 285 283 284 288 291 293 283 279 283 280 278 278 278 277 277 277 278 278 278 278 278 279 278 279 280 282 282 283 282 280 281 281 280 280 280 280 280 280 280 280 281 283 283 283 283 283 282 282 283 283 283 282 282 282 282 281
280 281 282 279 278 279 277 274 273 275 277 278 279 278 280 282 284 282 271 277 283 287 289 288 288 288 289 289 288 286 285 282 284 289 288 282 279 280 279 279 278 277 276 276 276 275 274 275 276 275 275 275 276 277 279 281 281 280 279 278 278 278 277 277 277 278 278 278 278 278 279 280 281 282 282 282 281 281 281 280 281 281 281 281 280 279
276 277 280 277 278 278 279 276 278 278 284 284 278 279 280 283 282 275 273 281 284 285 286 289 288 289 289 287 287 285 287 290 291 289 277 281 280 279 277 276 276 275 275 275 275 276 274 273 273 272 272 273 275 276 278 279 278 277 276 276 276 275 275 276 276 276 276 276 277 277 277 278 279 279 278 279 279 278 278 279 280 280 280 279 278 277
275 277 276 279 277 276 278 276 276 280 285 287 280 282 284 282 273 275 282 281 283 283 283 287 288 289 288 287 287 289 290 291 292 286 283 280 281 278 277 276 275 275 275 276 276 274 274 273 272 273 273 273 274 276 277 277 276 275 275 274 273 274 275 275 275 275 275 275 275 275 275 276 276 276 276 276 277 277 276 276 278 279 278 278 277 276
276 276 273 276 278 279 277 275 275 272 283 289 282 281 284 282 283 289 285 284 282 283 284 283 286 288 286 286 287 289 289 289 287 284 283 282 281 279 277 277 276 276 275 275 275 274 274 273 272 271 271 272 273 275 276 276 274 273 274 272 273 273 273 274 274 274 273 273 272 272 272 273 273 274 274 275 275 276 275 275 276 276 277 276 275 274
283 277 276 278 282 275 275 273 275 282 287 287 289 283 284 287 291 284 285 289 283 282 282 282 283 286 287 288 289 288 288 287 286 284 283 281 279 278 277 275 275 274 274 273 274 273 273 272 271 271 271 271 271 272 274 275 274 273 272 271 272 272 272 273 273 273 272 272 272 272 272 272 272 272 272 273 274 274 274 273 273 274 274 275 275 273
285 282 283 279 283 280 278 282 286 288 289 288 290 289 287 288 290 288 286 285 285 284 281 283 285 284 284 285 286 285 285 284 284 283 283 281 279 278 277 276 275 275 274 273 273 273 272 272 271 270 270 270 270 271 271 273 273 272 271 271 272 272 272 272 271 271 270 270 271 271 271 272 272 272 272 272 273 273 272 272 272 272 271 273 273 272
287 288 288 285 283 287 288 289 289 289 286 286 287 287 287 286 285 286 288 289 289 288 283 286 283 283 283 282 283 283 283 284 284 282 280 278 278 276 275 274 274 274 273 273 272 272 271 270 270 269 269 269 269 269 269 270 272 271 271 272 272 272 272 272 271 270 270 270 271 271 272 272 272 272 273 273 273 272 271 270 270 270 269 269 269 269
284 285 282 282 284 284 279 288 288 288 287 282 288 290 289 288 287 285 286 287 287 288 285 282 282 283 283 283 283 283 283 283 283 283 280 278 276 275 275 274 274 273 273 272 272 271 271 271 269 269 268 267 268 268 268 268 269 270 270 270 271 271 271 270 270 269 269 270 270 271 272 272 272 272 272 272 272 272 271 271 270 269 269 269 269 268
281 285 283 282 283 282 282 288 288 288 289 290 289 289 288 289 288 287 286 286 283 280 281 281 280 281 281 282 282 282 283 283 283 283 280 278 276 274 274 273 273 272 272 272 272 271 271 270 269 268 267 266 267 267 266 267 267 268 268 269 270 270 270 269 269 268 268 268 269 270 271 271 271 271 271 271 271 271 271 271 271 270 270 269 270 270
283 285 278 283 282 284 286 287 288 288 287 285 284 284 286 283 281 285 286 284 283 283 281 278 279 280 280 281 280 280 281 282 281 281 280 277 275 274 273 272 271 271 270 269 269 269 269 268 267 266 266 265 265 265 265 265 266 266 267 268 268 268 268 268 268 268 267 268 269 269 270 270 270 270 270 270 270 271 271 271 271 271 270 270 270 270
280 278 283 283 280 280 281 276 271 274 278 284 281 274 272 275 276 277 279 280 280 279 279 279 278 276 276 276 277 279 280 280 278 279 277 275 274 273 271 270 269 268 267 267 266 266 265 265 265 264 263 264 264 264 264 264 265 265 266 267 268 268 267 267 267 266 266 267 268 268 269 269 270 270 270 269 269 269 269 272 273 273 272 271 273 272
278 272 276 277 278 279 276 268 270 271 273 279 275 274 272 273 273 274 274 273 274 274 275 276 278 278 275 274 275 275 277 277 277 276 274 273 271 271 270 269 268 267 266 266 265 264 263 263 263 263 262 263 263 263 263 263 264 264 265 266 267 267 267 267 266 265 265 266 266 267 268 268 269 269 269 269 268 267 267 267 268 271 272 272 273 273
Wind_Speed
2 3 5 8 9 10 6 8 10 1 2 1 1 0 7 6 11 8 10 9 1 4 11 15 13 14 17 17 19 19 14 8 13 16 17 15 11 11 12 14 15 14 18 12 7 8 8 8 7 6 5 6 5 6 6 6 7 8 9 7 9 7 7 9 9 8 9 8 6 3 8 9 7 8 7 7 7 8 8 9 9 9 9 9 9 9
1 1 9 13 10 8 10 7 5 6 4 5 5 5 10 4 13 13 9 9 2 3 7 6 8 14 18 20 19 18 13 16 16 14 15 18 12 11 13 15 15 16 9 8 11 10 6 7 6 5 6 5 6 8 6 9 9 6 5 8 7 6 7 9 10 10 10 9 11 11 11 8 8 8 9 9 8 10 9 9 9 9 9 9 9 8
2 8 11 9 6 3 3 5 5 7 8 5 6 6 6 10 7 14 7 3 1 4 11 8 9 16 21 21 21 16 14 14 13 12 15 13 10 10 10 12 12 11 13 9 11 10 7 6 6 4 3 3 5 3 6 5 4 5 7 6 6 7 9 8 9 9 10 8 6 6 4 9 5 4 4 5 6 6 8 8 9 9 9 10 9 9
5 6 15 6 4 5 2 2 4 3 2 5 4 3 10 4 4 11 2 2 1 0 9 12 13 16 19 15 15 16 8 8 10 9 11 10 11 11 11 9 10 10 10 13 11 9 6 5 5 3 1 0 0 1 2 3 5 4 5 5 6 7 7 8 8 8 5 5 4 3 5 4 5 4 4 3 4 5 5 7 8 7 8 9 9 9
11 3 0 4 5 6 4 2 3 3 7 4 7 6 8 8 9 9 9 7 9 7 2 7 10 11 6 6 9 10 5 8 8 6 8 9 9 9 7 8 8 11 11 12 9 7 5 5 4 3 2 2 0 1 4 4 5 5 7 7 8 8 9 7 7 7 7 7 5 5 6 5 5 4 5 4 4 7 8 6 7 8 7 7 8 8
14 9 1 2 2 3 4 3 6 6 6 4 7 13 13 11 8 8 7 9 7 6 1 7 10 8 5 9 13 12 6 7 4 5 9 9 7 6 7 12 9 10 9 10 10 7 5 5 5 4 3 1 1 0 1 3 3 4 4 5 5 5 6 8 8 9 9 9 10 9 8 7 5 6 7 10 12 10 9 9 4 4 7 8 8 8
7 2 4 6 5 4 4 5 4 6 7 2 7 9 12 10 6 5 9 3 5 6 4 4 1 13 9 12 11 5 5 12 12 4 9 8 8 6 9 8 7 8 7 5 7 6 6 6 4 5 4 3 1 0 0 0 1 2 4 4 5 6 6 6 7 8 8 8 8 10 11 10 11 10 7 4 4 7 7 7 9 9 8 9 10 9
2 0 2 1 3 5 4 6 4 9 3 5 2 2 2 3 4 5 3 4 6 3 7 3 5 4 11 18 0 1 7 15 16 8 6 5 4 5 6 7 7 7 5 5 5 4 5 5 4 6 4 3 2 0 2 1 1 2 3 4 5 4 5 5 6 8 8 10 9 8 7 7 7 8 8 7 5 5 6 8 8 7 7 8 8 8
2 1 2 2 1 3 5 4 4 9 7 4 1 1 1 3 4 3 1 3 3 4 11 2 2 1 6 13 6 4 11 11 10 8 6 7 6 5 5 4 3 4 4 4 4 3 4 4 5 5 5 3 2 1 0 0 1 2 2 2 3 4 4 4 6 8 7 7 8 8 7 6 4 3 3 4 4 6 6 7 5 6 6 7 6 6
1 1 4 6 5 5 5 2 3 9 6 2 1 3 2 1 2 0 2 2 3 2 11 3 2 2 10 10 9 2 2 7 6 6 6 4 4 5 7 6 4 3 2 2 4 4 4 4 3 3 3 3 2 1 1 1 2 3 4 4 4 4 4 4 5 6 6 5 6 6 6 6 5 4 3 5 6 6 6 7 7 6 7 7 6 6
3 3 3 3 5 5 4 1 2 4 1 1 1 0 3 2 2 2 3 1 2 3 10 1 3 2 6 9 7 2 3 2 2 5 5 7 7 7 5 5 4 4 4 4 3 4 5 4 3 1 1 1 1 2 3 3 3 3 4 4 4 3 3 4 5 6 7 5 5 6 6 7 7 6 6 6 5 5 5 7 6 7 7 7 7 7
4 1 0 3 3 2 3 3 1 0 1 1 0 0 6 5 4 1 2 2 2 6 2 1 3 2 5 10 6 7 5 3 2 5 9 9 9 8 6 6 5 4 5 5 4 4 3 2 0 0 0 1 1 1 3 3 3 4 4 4 5 4 5 5 5 6 6 6 6 5 6 8 8 8 8 9 9 8 9 8 8 6 6 6 6 6
5 10 3 0 2 8 2 2 1 2 1 3 1 3 2 6 6 4 2 2 5 5 1 2 2 1 11 16 12 18 17 13 7 10 11 9 9 7 7 5 4 4 5 6 6 5 4 3 4 1 1 1 0 1 1 2 2 3 4 5 6 5 4 5 5 6 6 6 6 7 7 6 6 8 8 8 8 7 8 7 7 7 7 6 6 7
8 1 1 4 2 4 6 5 1 0 0 5 4 3 1 2 1 5 4 2 5 5 3 3 1 5 5 10 15 19 21 14 8 6 8 9 11 9 8 6 6 7 5 7 6 6 5 4 4 2 3 3 3 3 3 2 3 3 3 3 4 4 3 3 4 5 5 6 7 6 7 7 7 7 7 7 7 7 7 7 8 9 9 9 10 9
3 5 3 4 3 1 5 7 8 4 7 7 3 7 7 6 3 3 2 2 3 5 4 4 1 6 1 5 1 8 10 9 8 7 6 7 9 7 6 7 7 8 8 6 6 6 6 5 3 3 2 3 3 3 3 3 3 4 4 4 4 3 3 4 5 4 5 6 6 6 6 7 6 7 7 7 7 7 7 6 7 7 7 8 8 9
6 7 2 1 2 1 4 2 2 5 3 2 3 5 4 7 5 5 3 1 3 5 6 1 6 3 6 7 17 16 11 10 9 10 5 11 7 4 7 8 9 9 9 6 5 6 7 6 3 3 4 4 4 3 2 2 2 3 4 4 4 5 5 6 6 6 7 7 6 6 6 7 7 5 5 5 5 6 7 8 8 8 8 8 7 7
2 4 1 4 1 1 0 0 2 2 5 3 5 4 5 2 5 1 1 0 0 1 9 2 8 7 9 11 14 7 4 8 5 5 6 8 5 4 9 8 6 8 8 7 6 6 6 3 3 4 5 4 4 3 4 4 4 4 4 5 6 5 4 6 7 7 7 7 6 6 6 5 5 6 7 7 7 7 7 7 7 8 8 7 7 7
4 5 0 3 3 0 1 0 0 4 1 7 1 6 2 1 3 4 3 2 3 2 8 1 6 6 4 9 5 9 6 10 6 5 7 9 3 4 6 5 6 7 7 5 5 4 6 4 4 5 4 5 5 4 4 4 4 4 5 5 7 6 8 7 7 8 7 7 6 6 6 6 7 7 7 7 7 6 7 6 6 5 6 7 7 7
3 6 1 1 1 5 1 0 1 1 3 1 1 1 3 1 1 1 3 4 1 4 6 7 5 8 8 10 5 12 12 12 12 8 7 9 8 7 7 7 7 6 6 6 6 5 6 5 6 6 5 4 4 4 4 4 5 5 5 6 6 7 6 5 6 5 4 5 5 6 7 8 7 6 6 6 6 6 7 7 7 7 8 6 6 7
0 2 4 0 1 2 2 3 6 2 1 2 1 1 3 1 2 5 7 3 5 4 4 8 5 13 6 7 7 8 9 9 8 10 6 7 6 6 7 5 7 7 5 5 5 5 6 6 6 6 5 5 4 4 3 3 2 3 3 4 4 3 2 1 4 4 5 6 5 5 4 5 5 6 6 6 7 7 7 7 7 7 6 8 7 7
2 2 5 1 2 1 2 5 8 10 8 1 1 2 1 1 3 2 1 4 4 4 2 2 10 10 5 6 6 10 8 7 5 8 10 8 8 7 5 5 7 6 5 5 5 6 6 6 6 5 4 5 5 4 4 4 4 3 2 3 3 4 4 4 4 4 5 4 6 5 7 7 6 7 6 6 7 8 8 7 7 7 7 5 7 7
2 2 8 1 0 4 7 2 2 4 6 8 11 9 11 7 2 1 9 2 2 3 4 2 13 12 12 6 9 11 8 5 4 4 8 8 8 8 7 4 3 7 7 5 5 5 6 5 6 5 4 5 5 6 5 4 2 4 4 4 3 3 5 5 5 6 5 5 5 7 7 7 5 7 6 7 7 7 7 7 7 7 6 7 8 8
5 3 2 4 8 8 5 1 1 1 1 2 6 6 8 4 3 4 3 6 2 2 4 2 2 17 3 5 4 1 3 3 3 2 7 6 8 7 7 6 4 4 8 8 7 7 6 5 6 6 6 7 6 6 5 5 4 5 5 4 4 5 8 6 6 4 4 5 6 7 6 5 6 6 7 7 7 7 7 7 6 6 8 8 7 7
5 1 1 7 5 3 1 2 1 2 1 1 4 2 4 10 10 6 2 4 6 2 2 1 2 16 5 1 3 4 4 2 5 4 6 8 8 8 8 10 9 7 5 5 6 7 7 6 5 5 7 7 6 6 6 5 5 5 5 5 4 7 9 5 6 5 5 6 7 6 5 6 6 7 7 7 7 7 6 6 6 6 7 7 7 8
4 4 5 1 3 3 3 2 0 2 1 3 3 6 9 3 1 2 4 0 1 7 7 10 12 14 4 1 1 3 3 4 5 4 5 5 6 7 7 8 7 6 7 6 6 7 6 6 6 7 7 8 8 6 6 7 7 6 8 5 7 9 7 5 5 6 6 6 7 6 6 6 6 7 7 7 6 7 6 6 6 6 7 7 7 7
4 5 8 4 9 8 4 3 6 7 9 4 3 4 6 13 9 5 8 4 7 4 7 5 11 23 8 5 7 5 4 8 7 3 3 5 5 10 10 10 9 7 9 8 8 6 7 6 5 6 7 7 7 8 8 7 8 8 7 8 6 7 6 7 5 6 6 6 7 7 7 7 6 7 8 8 7 8 7 7 6 7 6 7 8 7
3 1 7 9 10 13 10 7 3 4 4 6 7 9 10 11 11 8 4 4 11 4 9 14 21 22 21 21 16 14 11 11 13 8 8 10 8 7 7 10 10 9 9 10 9 10 8 10 13 9 6 7 8 8 8 7 7 7 8 9 7 6 6 5 6 6 7 7 7 6 7 7 8 8 8 8 8 6 6 7 7 7 8 7 8 8
2 2 8 10 14 14 7 9 6 8 6 7 8 8 12 12 14 15 12 12 8 5 15 14 16 14 30 27 14 19 16 7 9 12 11 7 10 12 13 10 9 9 10 9 8 11 13 12 11 12 12 8 9 9 8 7 7 7 7 9 7 6 6 6 6 6 7 7 7 7 8 9 7 6 6 5 4 5 6 6 6 7 6 7 7 8
4 7 5 7 12 9 9 7 3 3 5 5 10 10 11 13 13 16 16 13 8 12 20 10 12 19 29 26 21 19 14 11 12 14 12 13 13 12 7 7 10 12 14 13 14 13 11 13 12 13 13 13 9 10 10 8 8 6 7 7 8 6 8 6 6 7 7 7 8 9 8 6 5 4 5 5 5 5 6 6 6 5 6 6 6 6
1 8 3 7 9 7 8 9 7 11 6 8 10 10 10 13 17 20 18 17 18 20 20 17 17 23 24 21 21 14 4 6 8 6 7 8 13 7 5 8 12 14 14 14 15 14 12 12 13 14 15 15 15 12 9 8 8 8 8 9 8 7 6 6 8 7 7 8 10 7 5 5 5 5 5 5 6 6 5 5 5 6 5 5 5 5
5 6 5 2 4 8 7 7 8 9 11 19 20 14 14 11 11 16 15 16 16 25 21 17 20 27 21 14 23 14 9 9 11 16 20 22 18 7 9 13 15 15 16 16 16 16 13 11 12 14 15 17 17 14 11 9 8 7 8 9 7 8 7 7 7 7 8 10 8 6 5 5 6 5 6 6 5 5 6 6 6 6 5 5 5 6
5 6 3 2 2 6 3 7 10 11 14 19 23 19 12 12 13 9 13 13 13 22 12 16 20 21 22 20 19 15 13 14 18 19 22 22 12 6 12 14 14 16 17 19 16 11 11 13 15 16 17 17 17 14 9 10 9 7 10 8 8 8 4 6 7 9 9 8 5 5 6 6 6 6 6 6 6 6 6 6 6 6 6 6 5 5
6 5 3 2 5 9 5 4 6 5 10 18 28 18 17 18 18 13 20 17 21 18 16 19 22 21 19 15 16 20 12 17 16 18 21 21 9 9 13 15 16 16 18 15 12 12 14 16 17 16 16 14 14 13 11 9 7 9 10 8 8 4 6 8 8 8 7 5 6 6 5 6 7 6 6 7 6 6 7 7 7 6 6 6 5 5
3 4 3 3 4 3 2 1 1 2 11 21 2 8 18 20 21 22 21 18 21 16 20 20 23 17 9 11 14 24 21 19 20 21 15 11 11 11 12 13 17 15 11 10 11 14 16 14 12 12 12 13 12 9 8 5 8 9 7 7 4 6 7 8 8 8 7 6 5 6 6 6 6 7 6 6 7 7 7 7 7 7 5 6 6 6
7 5 5 3 1 3 1 2 1 10 25 0 2 2 7 13 16 22 23 21 21 22 25 23 23 18 17 17 18 21 23 23 23 24 8 7 8 9 11 12 9 11 14 14 15 16 15 14 12 10 10 9 9 7 5 4 5 2 2 4 5 5 6 6 7 6 5 5 4 4 5 5 6 7 5 5 5 6 6 7 7 7 5 6 6 8
7 7 3 1 4 3 2 5 4 24 2 10 3 3 3 3 1 1 11 15 16 17 21 24 27 24 21 21 20 21 22 26 23 21 10 8 9 13 11 10 12 12 15 17 17 17 14 10 10 10 11 6 5 5 5 6 4 4 4 3 5 5 5 5 5 5 5 5 4 5 5 6 6 5 6 6 6 7 7 6 6 8 6 7 6 6
12 5 5 8 4 10 5 7 17 15 23 26 20 6 6 3 4 8 13 20 18 19 18 20 23 19 20 21 23 22 20 12 15 22 14 9 14 11 10 14 13 15 16 16 10 11 8 6 5 5 4 3 2 2 3 1 3 4 4 4 3 5 5 6 6 6 6 6 5 6 6 7 8 8 7 7 9 8 7 7 6 6 5 9 8 9
12 13 5 8 6 9 9 9 6 10 19 14 6 7 15 17 12 6 1 23 6 12 16 18 20 20 23 26 21 18 2 5 16 17 22 15 7 7 7 7 6 4 3 5 6 5 5 4 3 3 2 1 4 4 1 1 3 5 5 4 4 4 4 4 5 4 5 6 5 6 7 8 10 10 9 9 11 9 7 7 7 7 6 10 9 9
8 11 9 12 9 3 8 14 14 14 21 3 2 3 2 5 8 5 3 22 4 14 13 20 25 26 23 16 17 2 3 9 15 16 18 14 3 2 1 1 1 1 2 3 3 4 4 4 3 4 5 4 4 4 2 2 4 6 6 5 5 5 6 5 4 4 4 4 2 3 5 7 8 9 9 9 8 8 9 8 7 6 6 8 9 8
13 11 9 11 13 16 14 12 15 8 17 5 5 2 3 6 11 6 4 21 6 20 21 18 17 20 14 14 12 7 10 11 15 18 7 4 5 3 2 0 1 2 2 2 3 2 3 4 4 8 9 8 6 4 3 4 5 6 7 6 6 8 7 5 5 4 4 4 4 3 4 3 6 6 8 9 8 7 7 7 8 8 9 8 8 9
8 8 12 20 19 17 15 14 9 12 15 11 5 3 4 5 5 7 23 8 8 10 6 8 17 16 12 10 5 8 14 17 17 6 5 2 2 3 3 2 1 2 2 3 3 3 4 6 6 7 6 5 6 4 3 5 8 7 6 7 9 8 6 4 4 5 5 5 6 6 6 5 5 8 7 7 8 7 7 6 8 8 10 10 9 9
6 6 5 7 13 16 16 18 15 13 16 10 3 10 7 8 9 22 4 2 3 4 4 7 10 12 9 10 9 13 14 12 14 1 1 2 1 2 1 1 2 3 3 4 5 3 5 7 8 7 8 8 8 7 3 6 9 6 7 9 9 6 4 4 5 5 6 7 7 6 6 6 6 7 7 6 7 9 8 6 7 8 9 9 10 11
11 10 11 14 10 9 6 10 10 14 16 10 9 3 8 15 20 14 2 3 2 1 3 4 7 9 4 5 8 12 12 10 7 5 3 1 1 1 2 2 3 3 3 4 5 6 4 3 5 7 6 6 7 8 7 4 9 6 7 10 6 4 5 5 6 7 7 7 7 6 6 5 7 7 6 7 7 9 9 7 8 8 9 10 10 11
11 8 5 11 10 10 13 13 13 17 12 16 21 15 13 22 15 3 2 9 1 2 3 4 5 8 6 7 9 9 8 8 10 6 1 0 1 3 3 4 4 5 3 4 3 2 3 4 5 6 7 6 5 6 7 4 6 7 9 8 3 2 3 6 7 8 8 7 6 6 5 6 7 7 7 7 8 9 9 9 8 8 7 8 10 10
13 15 11 11 10 12 11 15 16 13 6 8 10 8 4 7 11 9 5 3 3 4 3 1 5 3 2 5 7 7 7 5 6 4 3 3 3 3 3 3 3 3 3 3 4 5 6 5 6 6 7 8 8 5 5 4 5 10 10 4 4 3 3 4 6 8 8 8 6 6 6 7 7 7 7 6 6 8 8 7 7 9 5 8 8 9
7 13 9 11 7 9 13 11 7 11 8 6 4 7 8 6 2 4 11 14 11 9 5 7 4 1 1 2 3 4 3 5 5 4 2 2 3 4 5 5 3 4 4 5 5 6 5 5 6 6 7 7 9 8 5 5 3 9 7 6 5 5 4 4 6 8 7 7 7 7 7 9 8 8 7 8 8 8 6 6 7 8 6 7 7 7
8 8 4 10 5 10 15 11 22 22 10 3 8 11 11 8 7 5 5 8 9 8 6 3 4 2 2 0 3 5 7 4 5 4 2 3 3 4 4 4 3 3 3 4 5 5 4 3 5 5 6 7 6 8 8 6 5 5 6 6 6 6 6 7 7 7 8 8 8 6 7 8 6 6 7 8 8 8 8 7 7 8 7 7 8 8
5 3 14 13 11 14 15 14 11 6 9 12 11 10 10 10 10 9 8 7 3 2 1 3 2 3 2 3 4 4 8 5 4 6 2 1 2 3 4 4 4 4 5 5 5 5 5 4 4 5 6 6 6 5 6 7 6 5 4 5 6 7 9 9 8 8 8 8 7 6 7 8 9 9 7 8 8 8 8 8 8 8 7 6 6 8
6 11 5 3 12 14 14 15 15 17 13 8 6 4 8 14 15 13 7 5 4 5 3 1 0 3 3 5 2 3 6 5 2 2 0 3 5 4 4 5 5 5 5 6 6 6 5 4 5 5 6 6 5 4 5 5 6 6 5 5 5 7 10 10 8 7 8 7 8 8 7 7 8 9 7 7 9 7 7 7 7 9 8 7 4 5
7 9 9 11 10 7 4 5 14 6 7 8 11 16 16 14 13 13 12 10 10 8 7 6 3 3 2 2 1 2 5 3 1 2 5 5 5 6 6 6 6 6 6 6 7 8 8 8 6 6 6 5 5 5 5 4 4 5 5 4 4 7 11 10 8 9 8 6 7 7 7 7 8 8 9 7 7 8 10 18 19 11 8 8 15 17
4 7 5 8 5 4 7 6 8 4 11 7 10 17 13 13 12 14 12 11 10 8 9 7 7 3 1 3 3 2 3 2 3 7 8 5 6 6 7 8 7 6 6 6 7 7 8 7 7 7 7 6 6 5 5 5 4 5 6 5 5 6 9 10 9 8 7 7 6 6 6 7 7 7 8 8 8 8 9 7 12 22 23 20 18 18
Wind_Direction
128 149 194 214 219 214 209 203 218 270 34 101 113 253 266 270 283 265 267 263 165 289 256 262 265 270 280 280 280 278 280 252 254 256 258 262 257 251 249 249 252 255 251 265 267 264 256 258 257 257 255 250 248 247 228 217 214 207 199 176 197 188 168 161 162 167 165 167 157 162 193 198 185 186 180 183 185 190 192 186 183 179 183 183 180 181
78 212 250 230 226 202 205 203 234 278 280 275 297 292 287 274 277 279 289 298 211 192 282 261 284 282 281 283 281 281 278 266 255 257 259 261 251 249 246 250 251 252 275 276 278 268 264 270 271 263 249 229 235 240 211 211 213 200 182 189 187 159 172 179 177 174 178 181 185 177 188 181 176 174 180 192 194 196 191 185 182 182 183 181 181 178
202 213 251 237 213 172 163 180 196 209 247 263 245 286 311 275 271 284 270 338 318 153 267 287 305 291 285 281 279 275 269 267 266 245 249 257 261 248 245 249 257 262 263 275 264 275 272 284 281 260 263 234 223 258 204 205 175 181 189 193 172 173 175 183 178 168 181 186 188 180 163 176 170 199 196 191 187 178 186 191 188 186 181 177 180 178
269 273 249 266 147 159 220 172 178 201 217 229 256 274 250 265 22 305 262 3 322 222 290 308 304 285 277 274 274 269 256 251 252 250 249 245 252 246 247 244 248 258 262 263 264 273 287 293 286 293 286 255 6 117 135 158 174 179 190 184 172 175 179 176 183 181 170 149 117 89 114 128 126 167 156 138 136 174 174 198 195 187 178 181 181 178
225 212 229 95 124 146 202 200 164 185 256 219 204 229 257 268 244 202 284 336 299 293 212 299 291 278 276 307 307 286 227 256 277 280 274 263 246 244 257 270 241 242 243 256 273 276 297 313 273 254 259 305 185 181 185 174 178 183 190 186 178 173 178 176 173 164 145 128 111 98 75 93 84 68 131 144 179 189 195 186 188 192 175 177 177 177
270 250 156 66 110 160 182 255 220 174 253 299 221 206 225 239 254 261 289 343 340 326 335 29 337 287 274 285 274 281 323 293 255 264 265 272 271 270 250 242 247 246 244 247 259 270 288 287 292 295 302 295 286 271 238 198 190 170 183 177 174 164 168 172 173 162 156 163 159 152 144 146 169 171 164 191 196 190 191 193 161 161 182 181 184 182
236 337 163 214 181 176 191 221 238 161 221 332 275 201 224 232 240 277 289 1 317 315 283 69 103 288 308 289 294 288 314 295 298 222 274 270 275 271 262 267 252 241 253 256 263 272 281 275 274 276 270 255 281 271 68 113 199 179 170 174 173 172 173 168 166 162 157 157 169 177 180 178 182 187 208 193 176 176 181 165 181 187 186 187 184 187
121 31 108 67 149 175 198 252 239 165 144 250 261 139 157 192 225 233 202 192 253 253 277 161 162 222 312 299 136 260 326 300 297 314 261 260 261 255 257 259 256 254 253 260 264 258 244 255 239 243 261 270 242 342 40 53 107 156 177 169 174 170 169 170 161 168 172 170 176 180 187 186 190 195 194 180 179 163 161 175 183 182 190 189 190 184
140 166 162 157 124 165 208 208 195 169 165 219 280 139 164 189 210 189 191 253 249 29 299 90 219 300 248 269 282 326 309 300 307 298 314 319 327 320 312 309 284 249 243 227 247 243 235 233 235 236 259 282 341 3 50 344 167 145 141 147 144 161 158 163 166 171 182 177 178 181 179 191 200 176 145 150 139 155 164 172 175 183 186 186 189 182
304 189 205 154 151 223 226 241 183 170 206 283 100 92 77 90 85 148 185 275 320 20 280 206 200 247 285 271 311 14 208 270 268 311 305 300 297 323 340 336 336 331 318 246 230 250 254 249 251 247 279 321 330 321 124 102 109 125 129 134 147 162 161 162 168 174 180 175 164 173 183 187 182 148 121 146 159 166 169 177 181 183 177 182 183 187
256 332 160 139 207 207 156 189 165 205 203 69 75 328 333 16 1 6 71 90 53 247 262 310 251 174 293 279 242 245 215 212 307 324 304 302 315 324 340 328 316 324 327 314 292 254 250 252 251 284 309 298 30 58 103 94 112 125 128 138 150 169 150 159 173 171 181 179 171 182 184 185 177 174 156 151 163 158 165 177 181 182 187 178 187 182
271 264 156 252 75 98 114 94 13 81 142 102 65 13 355 319 357 37 334 33 179 264 273 256 236 198 174 290 269 231 280 273 255 282 285 290 295 307 321 323 324 323 308 300 291 282 305 323 327 68 342 2 346 59 84 99 118 131 145 146 149 171 177 173 173 173 180 181 186 188 184 187 186 174 174 178 177 180 179 180 182 184 168 186 186 184
271 230 207 300 229 140 148 123 309 38 72 121 93 32 36 283 12 315 27 274 210 224 271 348 200 339 238 246 286 297 283 274 238 234 256 272 287 294 307 306 311 308 306 293 275 273 284 274 279 310 319 328 320 172 189 169 160 155 156 166 166 197 185 178 171 179 184 184 194 189 187 191 182 183 184 185 180 180 178 179 174 167 187 178 179 193
277 300 123 228 73 223 139 172 220 199 313 112 152 149 124 315 320 269 272 244 305 287 260 273 283 256 276 285 254 252 265 274 284 261 244 256 260 272 280 297 312 307 290 276 274 279 269 264 270 261 253 250 259 255 234 201 178 180 174 181 176 215 185 176 174 186 184 197 196 191 190 188 181 188 185 188 181 182 183 177 180 182 185 184 193 187
343 336 281 150 214 14 198 218 188 165 159 200 138 154 181 148 162 265 217 263 260 247 278 300 23 238 122 242 245 236 259 278 270 255 249 249 257 261 273 290 290 285 276 260 261 259 264 268 254 275 267 263 253 253 246 228 206 173 185 180 191 211 208 183 195 186 196 200 198 195 193 188 186 186 186 190 185 176 178 182 182 189 185 188 196 192
209 228 258 325 210 7 202 316 111 102 60 175 159 85 94 234 139 246 207 190 300 333 327 204 208 202 209 291 305 288 289 283 280 281 262 262 258 274 275 260 262 261 265 257 251 263 263 259 275 282 273 260 254 252 259 248 218 202 215 201 207 204 197 193 189 199 195 200 196 193 189 195 187 187 182 184 184 183 182 182 185 188 189 196 190 193
32 275 311 319 87 76 245 60 292 129 212 235 115 187 205 163 123 24 349 43 321 34 252 197 302 287 298 294 276 318 353 290 342 311 307 277 278 275 261 260 250 253 256 255 237 242 267 271 259 236 249 259 255 251 234 223 208 212 212 204 213 217 201 196 198 195 194 192 185 198 195 188 187 186 186 190 192 188 188 185 189 186 195 191 185 183
150 246 300 83 202 342 219 150 282 26 177 94 181 231 170 149 98 134 245 329 58 212 272 44 254 296 55 294 320 330 342 294 299 298 301 292 286 268 263 280 269 255 252 269 272 259 257 261 262 261 247 238 237 230 227 227 211 210 212 208 210 200 201 207 195 194 191 188 192 193 193 196 195 194 196 191 190 187 180 192 189 185 178 191 188 179
130 298 304 312 177 284 7 250 21 355 46 145 202 249 114 207 190 320 91 290 280 271 283 298 283 254 191 247 326 290 291 297 304 320 332 330 339 325 312 308 293 279 280 268 263 265 258 242 244 240 240 247 240 240 237 213 202 202 201 208 209 214 214 202 195 194 192 190 194 193 197 195 198 199 197 195 188 179 186 189 188 187 193 184 180 175
358 189 297 325 143 313 351 101 204 204 339 29 349 12 319 95 170 134 200 179 115 272 21 290 16 279 176 218 206 243 261 276 300 313 308 294 286 295 300 295 294 298 272 265 265 260 254 251 245 241 244 256 258 261 254 256 252 236 211 201 218 245 255 214 196 190 199 203 197 200 192 206 201 196 194 191 183 188 192 192 187 190 183 190 178 183
206 123 259 282 301 96 192 190 217 167 168 114 214 296 351 311 232 96 65 150 173 181 184 298 312 275 224 220 188 239 242 248 249 276 295 293 298 297 286 284 288 279 269 260 254 260 261 260 269 276 273 270 278 267 273 271 275 274 258 236 220 234 246 232 218 192 212 186 203 195 201 201 192 197 194 190 191 191 194 190 188 189 191 166 187 178
177 177 214 5 206 219 242 248 232 193 189 175 175 200 180 137 134 164 263 37 93 114 246 125 273 283 283 168 208 225 228 238 256 243 274 290 292 292 301 288 255 288 284 273 275 275 283 290 286 286 283 268 274 278 274 272 267 274 252 235 209 211 237 228 224 208 205 200 196 201 208 204 193 193 189 191 193 196 192 192 190 188 173 185 192 179
161 140 102 231 207 205 227 271 253 247 147 192 173 227 168 203 105 118 216 252 53 251 105 156 52 275 246 216 237 308 288 248 268 234 273 289 290 296 303 304 299 247 274 291 292 290 279 271 270 277 276 272 262 269 276 283 255 251 250 237 223 212 242 216 229 217 198 195 199 211 212 195 193 190 191 190 196 199 194 194 192 180 184 192 187 190
107 122 99 277 316 313 336 303 54 60 104 334 257 159 142 206 198 214 189 186 157 153 147 9 197 261 244 187 218 216 221 229 271 247 265 297 302 312 309 313 320 326 305 287 287 279 273 272 276 285 279 277 275 265 265 262 256 251 245 229 208 224 237 217 217 206 200 202 209 210 195 199 198 188 189 194 199 199 197 191 190 183 189 191 183 186
141 246 157 284 345 345 341 345 288 340 33 219 200 209 207 218 145 127 101 288 222 211 175 140 241 264 263 285 262 249 293 297 286 276 200 270 303 297 298 300 304 301 305 302 294 285 293 293 282 269 260 260 261 260 254 254 252 248 246 219 216 230 230 215 196 197 207 201 204 199 196 203 195 195 195 200 197 201 192 192 187 185 190 183 189 190
165 178 143 172 207 240 253 232 242 237 212 202 228 240 199 198 179 107 229 175 214 257 184 173 247 252 261 306 278 264 281 285 256 217 237 210 253 290 305 300 297 305 297 298 295 298 290 273 263 260 268 272 269 259 256 249 243 245 247 242 224 229 223 215 186 200 201 202 198 201 200 203 198 203 202 201 199 196 190 187 186 187 195 185 187 184
190 198 194 183 192 227 223 232 232 104 84 165 229 195 206 211 200 194 86 152 209 221 211 219 235 266 276 256 265 269 256 262 287 301 289 294 286 268 261 269 274 281 284 283 285 285 293 290 279 266 242 242 255 256 254 251 249 243 243 252 244 231 225 209 187 199 202 201 204 199 205 201 206 203 204 201 199 187 181 185 188 184 190 189 183 179
80 236 222 221 222 230 213 236 207 173 192 216 202 216 208 186 193 195 185 218 180 209 252 231 246 259 264 267 261 272 273 282 283 279 283 275 264 260 259 269 291 288 278 270 274 279 278 275 280 284 281 270 256 255 257 251 245 246 238 245 246 233 225 211 193 198 204 201 206 208 209 211 204 201 204 199 183 180 186 182 182 190 185 175 182 182
163 226 222 194 246 244 243 253 222 209 238 222 211 204 200 195 193 198 215 222 175 207 242 237 220 234 255 262 264 259 278 279 270 271 263 259 263 263 270 280 271 266 267 272 270 269 268 273 278 280 279 277 270 260 258 256 252 243 248 244 245 229 224 201 190 199 202 204 210 213 211 200 194 184 183 179 176 178 183 186 185 180 173 178 182 177
105 247 191 199 246 242 256 255 262 256 266 261 239 224 212 190 202 204 214 213 215 235 240 250 250 247 248 263 265 265 258 245 261 260 280 270 253 261 277 262 258 258 260 262 262 257 257 259 265 269 273 276 273 266 254 248 242 235 235 244 238 231 226 170 203 196 199 207 215 213 198 184 177 182 175 175 182 185 178 174 171 165 167 176 172 163
155 282 122 162 236 253 238 249 259 261 255 265 259 231 216 214 213 213 218 222 227 245 244 256 258 261 263 257 267 271 273 272 277 278 269 265 263 236 238 248 254 258 258 257 257 256 257 261 261 264 265 263 264 259 256 249 245 237 237 240 236 228 213 185 197 200 198 213 212 195 172 172 184 168 179 185 174 166 167 166 160 160 161 158 154 152
159 259 59 76 270 274 167 222 247 254 262 263 263 250 227 199 224 208 218 211 205 236 238 248 255 256 263 263 271 277 270 263 261 261 267 267 261 220 235 247 249 253 255 255 256 261 259 251 250 249 252 255 258 258 247 247 241 232 238 230 226 223 177 190 201 199 206 210 187 178 175 178 168 171 176 167 174 169 165 153 151 153 153 149 144 142
186 166 170 130 231 253 257 225 245 273 309 286 261 238 223 221 219 214 223 210 212 220 235 236 245 243 254 268 285 276 250 260 258 257 259 264 263 227 239 244 251 250 251 260 263 254 248 247 246 246 249 252 256 256 247 232 231 229 231 222 223 159 173 195 202 201 200 192 178 178 171 164 168 164 164 171 157 155 151 146 140 134 141 150 148 134
134 165 189 157 208 250 295 338 47 248 256 251 332 162 183 211 211 219 230 218 222 201 230 230 243 252 260 262 253 267 272 259 255 255 245 252 262 248 236 240 245 256 267 259 247 248 252 253 252 248 244 250 256 255 262 222 217 231 220 214 185 179 194 187 194 190 186 173 175 168 163 162 157 140 149 150 151 152 147 140 140 130 129 129 131 131
176 186 211 146 170 258 121 90 201 224 242 185 315 325 211 209 205 209 227 225 224 221 236 250 256 256 245 248 249 258 265 268 267 265 251 205 213 236 240 239 251 256 260 264 262 256 254 256 261 261 259 255 254 257 249 250 227 196 164 171 182 192 180 188 170 168 158 153 146 142 145 145 141 135 143 144 135 130 119 118 117 116 118 128 133 132
175 159 153 280 142 48 61 184 208 241 243 326 310 98 84 66 136 211 272 254 241 228 225 237 244 245 247 249 252 251 257 262 276 280 258 219 205 234 242 252 249 249 257 256 256 263 264 267 263 259 262 262 251 237 204 225 189 179 195 161 174 165 165 155 144 133 127 126 132 139 142 137 130 127 126 123 115 88 92 98 85 115 119 104 98 102
157 148 167 236 153 225 190 188 239 303 312 278 270 243 171 185 177 159 247 251 211 220 217 233 244 246 250 250 246 250 257 289 291 282 277 200 240 232 223 242 242 242 245 258 267 277 298 311 293 286 291 299 336 346 283 234 159 155 136 141 142 143 143 141 134 135 130 129 131 136 140 142 138 133 131 129 110 104 113 120 115 103 102 90 106 97
166 198 180 212 224 191 238 267 289 273 259 281 140 233 202 205 195 196 241 272 175 197 212 221 239 241 239 241 243 250 360 336 284 277 277 270 227 232 220 240 273 313 338 305 328 316 334 344 352 11 24 46 46 18 339 141 147 129 121 112 111 114 110 109 111 117 121 126 135 138 143 144 138 132 130 125 119 123 123 115 95 113 128 119 116 96
212 204 180 202 228 161 200 227 240 242 254 143 209 101 153 138 172 143 49 266 186 169 197 209 226 232 236 239 248 215 164 244 253 263 268 281 72 13 189 4 358 24 348 350 339 328 345 1 18 24 26 36 36 352 1 103 117 113 103 95 90 86 83 69 68 72 80 72 90 110 130 139 134 134 132 128 129 130 130 130 128 118 100 99 100 98
198 206 197 219 225 228 224 229 237 219 258 230 210 244 221 167 122 119 253 265 157 182 207 208 224 240 236 226 229 158 203 229 248 252 279 32 99 63 66 24 359 357 7 357 14 6 360 353 25 32 25 16 351 334 38 79 85 86 93 84 82 77 67 60 60 63 55 56 50 50 59 80 107 109 117 118 111 105 109 117 114 114 108 101 104 105
194 214 201 214 219 224 223 243 257 265 257 232 186 173 99 93 108 145 229 271 189 202 229 194 218 231 229 229 172 205 223 221 240 263 71 142 80 61 44 50 52 16 12 11 360 23 42 48 64 64 41 4 340 345 44 92 91 86 85 88 82 72 69 66 64 64 65 64 62 58 57 53 81 96 88 97 106 102 90 93 110 111 109 109 103 101
210 182 233 220 228 224 221 230 237 270 265 233 134 147 137 101 213 229 248 137 138 206 246 196 220 229 223 222 197 223 240 236 254 280 32 59 80 123 108 73 60 54 42 30 27 21 69 69 52 52 38 20 7 357 22 91 97 102 97 89 81 86 88 75 73 75 71 69 65 61 59 68 71 77 91 94 102 97 87 77 89 99 107 107 108 103
180 173 195 200 214 236 211 236 232 242 262 163 136 246 193 205 240 246 18 307 135 231 206 225 214 252 214 243 232 237 251 262 267 278 322 44 94 173 149 143 71 63 38 37 17 352 334 56 61 51 40 11 19 16 359 69 101 96 94 84 96 112 108 98 91 86 81 76 71 61 60 57 68 73 79 87 90 99 95 93 93 95 103 110 107 105
163 199 193 218 188 201 200 211 219 219 251 143 174 196 204 214 228 75 140 278 338 177 204 223 257 238 238 232 243 252 262 281 294 272 238 143 113 102 85 91 91 88 86 87 81 14 5 63 64 59 40 29 28 30 13 355 87 86 84 75 45 16 75 98 101 98 90 86 82 80 73 71 70 70 72 82 91 93 100 97 97 93 103 112 114 114
170 218 193 217 187 208 203 218 224 241 212 217 220 244 256 251 261 267 289 235 265 297 191 169 258 282 219 232 262 265 282 260 251 315 284 241 176 147 120 99 98 121 120 112 77 56 43 51 63 61 45 27 22 31 15 335 97 98 89 59 37 38 44 72 81 85 90 77 85 84 86 77 76 72 67 60 76 91 96 99 103 101 94 106 106 111
207 229 226 251 222 240 253 251 273 253 239 225 260 259 258 269 297 239 247 263 262 251 192 230 234 243 253 216 228 289 239 280 302 278 228 205 168 123 117 110 107 108 92 85 72 62 74 76 70 65 67 42 26 24 7 339 355 97 105 105 82 48 25 58 85 88 90 77 69 68 92 84 75 69 65 68 67 67 69 85 89 97 92 89 93 97
240 250 246 242 227 236 243 209 236 246 244 127 233 245 247 237 240 219 232 233 243 254 255 218 212 217 229 175 203 247 275 277 277 276 163 187 153 119 101 103 90 79 91 92 99 108 102 87 79 74 76 68 34 28 19 357 14 53 83 81 85 87 83 71 70 60 44 53 49 74 83 76 73 75 67 66 71 70 69 69 77 83 81 89 99 99
276 223 243 242 251 231 248 242 260 262 255 239 238 253 265 257 249 241 236 250 270 17 251 233 151 230 170 231 217 230 265 262 249 273 229 164 111 88 73 71 79 64 50 54 65 61 70 65 76 83 77 70 50 50 32 24 19 18 37 69 82 94 96 91 89 81 64 44 54 71 75 77 77 76 74 68 71 73 70 68 68 69 70 82 103 120
313 330 279 286 247 254 267 271 289 283 274 280 294 307 344 354 341 325 313 301 288 279 289 20 13 233 187 231 191 218 261 276 214 250 148 104 83 85 78 76 64 57 45 35 26 26 50 57 62 65 69 62 51 49 69 44 24 6 360 41 78 97 98 97 94 93 91 98 90 80 73 78 79 83 74 75 72 59 57 60 65 77 80 64 44 77
314 267 298 315 289 268 277 28 22 21 315 339 357 3 341 336 334 328 335 351 5 354 348 322 321 16 26 17 318 249 244 271 110 129 110 98 101 102 98 86 77 68 56 46 48 45 47 42 43 52 58 49 36 48 57 55 36 3 348 27 72 101 105 105 97 88 69 67 80 92 93 92 90 89 87 71 76 82 69 57 63 72 78 84 84 85
309 344 329 261 285 279 24 57 32 332 272 250 6 349 357 343 342 344 2 351 350 356 339 341 327 307 347 1 6 311 280 238 153 121 114 119 115 111 114 121 122 118 108 92 82 67 61 54 47 44 49 41 32 30 37 33 19 15 357 25 53 94 107 113 107 97 83 86 81 82 87 93 93 96 96 89 85 83 87 97 53 56 65 72 80 86